{"data":{"norad_id":45457,"intl_designator":"2020-020AK","name":"ONEWEB-0088","alt_names":[],"object_type":"PAYLOAD","status":"ACTIVE","operator":null,"country":"UK","launch_date":"2020-03-21","launch_site_code":"TYMSC","launch_vehicle":null,"mission":null,"orbit_class":"UNKNOWN","rcs_meters":null,"size_class":null,"mass_kg":null,"dimensions":null,"purposes":["comms"],"wikipedia_slug":null,"has_3d_model":false,"image_url":null,"decayed_at":null,"tle_current":{"epoch":"2026-05-25T02:06:53.074656Z","epoch_age_seconds":70965,"freshness":"FRESH","line1":"1 45457U 20020AK  26145.08811429 -.00000364  00000+0 -10619-2 0  9993","line2":"2 45457  87.8928  25.6268 0002162  88.0553 272.0823 13.11417865299515","mean_motion":13.11417865,"eccentricity":0.0002162,"inclination_deg":87.8928,"raan_deg":25.6268,"arg_perigee_deg":88.0553,"mean_anomaly_deg":272.0823,"bstar":-0.0010619,"rev_number":29951,"period_min":109.80481800894,"perigee_km":1216.036930455,"apogee_km":1219.3213613565,"semimajor_km":7595.8161459058,"source":"CELESTRAK","updated_at":"2026-05-25T13:38:22.348147Z"}}}